Wind_Speed
7 7 6 6 5 5 6 6 5 5 5 5 5 6 6 5 5 6 6 5 5 5 6 6 6 8 7 7 8 8 7 7 7 7 7 8 8 8 8 9 8 8 9
8 7 7 6 5 5 5 5 5 5 5 5 6 6 5 5 5 5 6 6 5 5 5 5 5 7 7 7 8 8 8 8 8 7 7 7 8 8 8 7 8 8 8
8 8 7 6 6 6 6 5 5 6 6 6 6 5 5 5 5 6 6 6 5 4 4 4 5 6 7 7 8 8 8 8 8 8 8 7 8 8 8 7 8 8 8
8 7 7 6 6 6 6 5 5 6 6 6 5 6 5 5 5 5 5 5 4 4 3 4 4 5 6 7 8 8 9 8 7 6 7 6 7 8 8 8 8 8 8
8 7 7 7 7 6 6 6 6 6 6 5 6 6 6 5 5 5 5 5 4 3 3 3 3 4 5 6 7 8 8 7 5 4 6 6 7 8 8 7 8 7 7
8 7 7 7 7 7 7 6 6 5 5 5 5 6 6 5 5 5 5 5 4 3 3 2 2 3 3 4 5 6 6 5 4 4 5 6 7 8 8 7 8 8 8
8 7 7 7 7 7 6 6 6 5 5 5 5 5 6 6 5 4 5 5 5 3 2 2 2 3 3 5 5 6 5 4 4 4 5 5 6 7 7 7 7 8 8
7 7 6 7 7 7 6 6 6 6 5 5 5 5 5 5 5 5 5 5 4 3 2 3 4 4 3 3 4 4 3 3 4 4 4 4 4 6 6 7 7 7 7
8 7 7 6 6 6 6 6 6 6 6 6 5 5 5 5 5 5 5 4 4 4 4 4 4 4 3 2 3 3 3 3 3 3 3 3 4 5 5 6 7 7 7
8 7 7 7 7 7 6 6 6 6 6 6 6 5 5 5 5 5 5 5 5 5 5 4 3 3 3 2 3 3 3 3 2 2 3 3 3 3 4 5 5 5 6
7 7 7 7 7 7 7 7 6 5 5 6 6 5 5 5 5 5 5 5 5 5 4 4 4 4 3 3 4 4 2 2 1 2 2 3 3 2 3 3 4 4 5
8 8 7 7 7 7 7 7 6 6 6 5 5 5 5 5 5 6 6 5 4 4 3 3 3 3 3 3 3 3 2 1 1 1 2 2 3 2 3 3 3 4 4
7 7 7 7 7 7 7 7 7 6 6 5 6 6 6 5 5 6 5 5 4 3 3 3 2 2 3 3 2 2 2 1 1 0 1 1 2 2 3 3 3 4 4
7 7 8 8 7 7 6 6 6 7 6 6 6 7 7 6 6 5 4 4 3 4 3 3 3 3 3 3 3 2 1 2 1 1 2 2 2 3 3 3 4 5 5
7 7 7 7 7 7 7 6 6 5 5 5 5 7 6 6 5 5 4 4 4 4 4 3 2 2 2 2 2 2 2 2 2 2 2 2 3 3 4 4 5 6 7
7 7 6 6 6 6 5 5 6 5 5 5 5 6 5 5 5 5 4 4 4 4 3 2 2 2 3 3 2 2 2 2 2 3 3 3 3 4 5 5 6 7 8
7 6 6 6 6 5 5 5 5 4 5 5 5 6 5 5 5 3 3 3 3 3 2 2 3 3 3 3 3 2 3 3 3 4 4 4 4 5 6 6 7 8 8
7 6 6 6 6 6 5 5 5 4 4 4 5 5 5 5 5 4 3 2 2 2 2 2 3 3 3 3 3 4 4 4 5 5 5 5 6 6 6 7 7 7 8
6 6 6 6 6 6 6 5 5 4 4 4 4 4 5 5 5 5 4 4 3 3 3 2 2 3 3 4 5 5 5 6 6 7 7 7 7 7 7 7 8 9 9
6 5 5 6 6 5 5 5 5 5 5 5 4 4 5 5 5 4 4 4 4 3 3 3 3 3 4 5 6 7 7 7 7 8 8 9 9 8 9 9 9 10 11
6 5 5 5 5 5 5 5 5 6 5 5 5 4 5 5 5 4 5 5 4 3 3 3 4 4 5 6 7 7 8 8 8 8 9 9 10 10 10 10 10 11 11
5 5 4 4 4 4 4 5 5 5 5 5 5 5 5 5 5 5 5 5 5 4 4 5 5 6 6 7 7 8 8 8 8 9 9 10 10 11 11 11 11 11 12
5 4 4 3 3 4 4 4 4 5 5 5 5 5 5 5 5 5 5 5 5 5 5 6 6 6 7 8 8 9 9 9 9 9 10 10 11 12 12 13 13 13 13
4 4 4 3 3 3 3 3 4 4 4 4 4 5 5 5 4 4 5 5 5 5 6 6 7 7 8 8 9 9 10 9 9 10 10 11 11 12 12 13 13 14 14
4 4 3 3 2 1 2 3 3 4 4 4 4 5 5 5 5 5 5 6 6 6 7 7 8 8 9 9 9 10 10 10 10 11 11 11 12 13 13 14 14 15 15
4 4 4 3 3 2 2 2 3 4 4 4 5 6 6 6 6 6 6 7 7 7 8 9 9 10 10 11 11 11 11 11 11 12 12 12 13 14 15 15 15 16 17
Wind_Direction
83 77 74 76 83 95 108 114 111 116 132 140 147 147 145 140 138 137 139 144 153 162 173 181 184 189 194 203 206 212 212 215 218 218 216 222 220 220 218 216 217 222 223
85 80 82 82 84 92 104 117 113 111 120 129 136 141 147 151 157 156 149 149 157 168 185 191 191 201 210 214 214 215 214 215 219 218 218 222 220 215 215 221 222 230 232
86 82 81 83 82 86 97 110 117 123 121 125 129 131 137 149 161 166 165 162 162 169 188 192 202 214 222 223 220 221 215 214 220 222 226 229 221 215 217 224 231 236 237
86 85 83 83 81 87 94 98 110 124 123 121 120 125 128 135 152 164 166 164 167 172 183 195 204 219 227 230 228 224 219 220 218 220 222 220 220 222 227 230 231 230 235
82 81 81 80 80 86 95 103 107 111 118 118 116 114 114 119 132 151 161 163 169 178 181 199 204 229 229 227 224 219 220 218 212 219 222 224 223 222 226 229 225 224 234
77 77 77 79 80 84 90 102 106 107 107 111 114 110 114 118 132 141 150 156 163 174 184 199 202 225 226 206 204 205 204 208 212 218 222 223 225 225 225 231 231 233 239
76 77 78 81 82 85 91 97 103 105 106 104 105 108 112 121 125 137 154 154 154 159 156 153 153 172 164 169 175 187 193 212 213 215 218 221 228 224 222 227 232 235 241
78 79 79 82 83 85 91 93 100 105 104 101 102 109 108 109 123 137 150 152 159 143 131 129 138 148 150 167 175 178 179 202 217 216 215 219 223 214 218 231 236 236 239
82 78 77 82 81 85 89 94 95 93 100 102 105 106 108 105 108 118 130 137 147 147 131 129 136 131 121 147 182 192 187 193 212 200 201 218 214 207 221 229 236 238 241
79 76 77 80 82 85 87 91 91 89 97 107 107 106 107 107 107 110 115 121 132 138 133 127 123 115 106 145 173 170 169 185 178 195 192 203 219 216 211 222 234 247 246
73 72 75 82 84 86 85 83 84 85 90 106 109 107 109 107 101 100 105 112 125 126 122 121 123 120 121 138 146 149 156 165 193 200 205 221 232 244 236 221 230 240 246
70 69 80 83 86 86 83 80 79 84 84 96 107 109 110 108 102 103 108 112 114 117 119 124 128 120 132 132 136 146 130 99 63 180 208 226 235 236 244 248 241 237 247
67 64 75 82 80 82 81 80 79 80 83 93 104 103 99 102 102 101 110 110 105 111 127 130 137 121 120 118 119 117 112 86 36 53 285 269 264 258 259 262 272 264 273
71 71 72 75 78 84 85 82 82 80 79 85 90 93 99 101 99 97 105 104 110 116 120 122 141 117 93 71 73 75 77 71 42 347 333 320 297 278 281 277 276 272 276
68 70 74 75 72 68 74 79 86 87 79 80 87 98 99 96 96 93 95 105 109 115 122 124 102 62 47 44 49 44 42 37 24 349 327 306 301 294 297 291 284 282 285
62 67 68 67 67 65 72 78 81 80 69 67 84 93 91 91 94 100 98 112 106 110 110 91 52 44 27 28 28 20 14 0 347 335 325 304 295 296 299 294 294 286 289
59 59 58 58 60 63 69 75 73 76 71 67 70 70 70 85 95 102 106 105 95 84 71 36 22 18 18 18 12 0 347 339 331 323 315 307 300 299 300 298 298 294 289
53 54 57 60 59 65 68 67 67 62 61 65 65 61 59 67 75 76 70 67 51 43 35 26 21 14 4 357 348 337 331 322 319 315 311 307 302 301 305 303 302 301 295
45 53 59 62 62 64 63 61 61 65 62 60 54 43 44 50 57 60 55 47 40 42 34 28 10 4 350 339 333 328 327 322 315 310 307 305 305 302 304 304 303 303 300
34 42 52 57 60 62 63 62 62 62 56 51 49 43 41 39 38 44 48 42 36 33 25 15 4 349 333 326 325 322 319 316 311 308 307 305 301 298 296 299 302 301 299
27 34 43 50 60 57 55 57 57 52 48 46 47 45 36 28 26 30 31 28 25 17 9 357 346 340 332 327 323 318 315 312 309 307 307 305 300 298 296 296 298 298 299
22 24 29 42 53 53 51 54 53 50 47 47 44 41 34 24 22 23 23 21 16 10 359 347 339 335 332 328 322 317 313 310 307 306 305 303 300 300 299 297 297 296 299
14 16 16 22 34 44 47 49 48 46 41 41 40 36 31 26 24 17 18 11 5 360 348 340 337 334 329 325 321 320 315 309 307 305 304 301 299 298 298 298 297 296 295
8 13 8 8 24 37 37 43 37 33 30 30 29 28 23 14 10 6 358 350 350 347 343 340 339 336 331 326 322 317 314 308 306 303 302 300 299 298 297 295 293 294 294
357 4 11 7 355 1 4 11 21 16 12 11 15 15 10 4 359 351 343 341 340 340 338 336 335 333 331 327 323 320 316 310 306 303 302 300 298 296 295 295 295 294 294
335 341 340 342 334 302 303 324 343 354 357 359 3 1 356 351 348 341 332 334 335 333 333 330 327 327 326 325 323 320 317 312 306 304 302 301 298 295 294 294 296 295 294
Height
5884 5883 5882 5882 5881 5881 5880 5880 5880 5880 5880 5880 5880 5880 5880 5880 5880 5880 5880 5880 5880 5881 5881 5881 5882 5883 5883 5884 5885 5886 5886 5887 5887 5887 5888 5889 5890 5891 5892 5892 5893 5894 5894
5884 5883 5883 5883 5882 5882 5881 5881 5880 5881 5880 5880 5880 5880 5880 5880 5881 5880 5880 5880 5880 5881 5881 5881 5882 5882 5883 5883 5884 5885 5885 5886 5886 5887 5888 5888 5889 5890 5891 5891 5892 5893 5894
5885 5884 5884 5883 5883 5882 5882 5881 5881 5881 5881 5881 5880 5880 5880 5880 5880 5881 5881 5881 5881 5881 5881 5881 5881 5882 5882 5883 5883 5884 5884 5885 5886 5887 5887 5888 5888 5889 5890 5890 5891 5892 5893
5886 5885 5885 5884 5884 5883 5882 5882 5881 5881 5881 5881 5881 5880 5880 5880 5880 5880 5881 5881 5882 5882 5882 5882 5882 5881 5881 5881 5882 5883 5883 5884 5885 5886 5886 5887 5888 5888 5889 5890 5890 5891 5892
5887 5886 5885 5885 5885 5884 5883 5883 5882 5882 5882 5882 5882 5881 5880 5880 5880 5880 5881 5882 5882 5882 5882 5882 5881 5880 5880 5879 5880 5882 5883 5883 5884 5885 5886 5886 5887 5887 5888 5889 5889 5890 5891
5888 5888 5887 5886 5886 5885 5884 5883 5883 5883 5883 5883 5883 5882 5881 5881 5881 5881 5881 5882 5882 5882 5882 5881 5881 5879 5878 5877 5878 5880 5882 5883 5884 5884 5885 5885 5886 5886 5887 5888 5888 5889 5889
5890 5889 5888 5888 5887 5886 5885 5885 5884 5884 5884 5884 5883 5883 5882 5882 5882 5882 5882 5883 5882 5882 5882 5881 5881 5880 5878 5877 5878 5880 5882 5883 5883 5884 5884 5885 5885 5885 5886 5886 5887 5888 5888
5891 5890 5890 5889 5888 5887 5886 5886 5885 5885 5885 5885 5884 5884 5884 5883 5883 5883 5883 5883 5883 5883 5882 5881 5881 5881 5880 5880 5880 5882 5883 5883 5883 5883 5884 5884 5884 5883 5884 5885 5886 5887 5887
5892 5891 5891 5890 5889 5888 5887 5887 5886 5886 5886 5885 5885 5885 5885 5885 5884 5884 5884 5884 5883 5883 5883 5882 5882 5882 5882 5882 5882 5882 5883 5883 5883 5883 5884 5884 5884 5883 5884 5885 5885 5885 5886
5894 5893 5892 5891 5890 5889 5889 5888 5888 5887 5887 5887 5886 5886 5886 5886 5885 5885 5885 5885 5884 5884 5884 5884 5884 5883 5883 5883 5883 5883 5883 5884 5883 5883 5884 5884 5884 5884 5884 5884 5884 5884 5884
5895 5894 5894 5893 5892 5891 5890 5890 5889 5889 5888 5888 5887 5887 5887 5887 5886 5886 5886 5886 5886 5885 5886 5886 5885 5885 5884 5884 5884 5884 5884 5884 5884 5884 5884 5884 5884 5884 5884 5884 5884 5884 5884
5897 5896 5895 5894 5893 5893 5892 5891 5890 5890 5889 5889 5888 5888 5888 5888 5887 5887 5887 5887 5886 5886 5886 5886 5886 5885 5885 5885 5885 5885 5885 5884 5884 5884 5884 5884 5884 5884 5884 5884 5884 5884 5884
5898 5897 5896 5895 5895 5894 5893 5892 5892 5891 5890 5890 5889 5889 5889 5889 5888 5888 5888 5888 5887 5887 5886 5886 5886 5886 5886 5885 5885 5885 5886 5885 5885 5884 5884 5884 5884 5884 5884 5883 5883 5883 5883
5900 5899 5898 5897 5896 5896 5895 5894 5893 5892 5892 5891 5890 5890 5890 5890 5890 5889 5889 5889 5888 5887 5887 5887 5887 5887 5886 5886 5886 5886 5886 5886 5885 5885 5885 5884 5884 5884 5883 5883 5883 5882 5882
5901 5900 5899 5898 5897 5897 5896 5895 5895 5894 5893 5892 5892 5891 5891 5891 5890 5890 5890 5889 5889 5888 5888 5888 5888 5888 5888 5887 5887 5887 5887 5886 5886 5885 5885 5884 5884 5883 5883 5882 5882 5881 5881
5902 5901 5900 5900 5899 5898 5897 5897 5896 5895 5894 5894 5893 5892 5892 5892 5891 5891 5890 5890 5890 5889 5889 5889 5888 5888 5888 5888 5887 5887 5887 5886 5886 5885 5884 5883 5883 5882 5882 5881 5880 5880 5879
5904 5903 5902 5901 5900 5899 5898 5898 5897 5896 5895 5895 5894 5894 5893 5893 5892 5892 5891 5891 5890 5890 5889 5889 5889 5888 5888 5888 5887 5887 5886 5886 5885 5884 5883 5883 5882 5881 5880 5879 5879 5878 5877
5905 5904 5903 5902 5901 5900 5899 5899 5898 5897 5896 5896 5895 5895 5894 5894 5893 5892 5892 5891 5891 5890 5890 5889 5889 5889 5888 5888 5887 5887 5886 5885 5884 5884 5883 5882 5881 5880 5879 5878 5878 5877 5876
5906 5905 5904 5903 5902 5901 5900 5899 5899 5898 5897 5897 5896 5896 5895 5894 5894 5893 5893 5892 5891 5891 5890 5889 5889 5889 5888 5888 5887 5886 5885 5884 5883 5882 5882 5881 5880 5879 5878 5877 5876 5875 5874
5907 5906 5905 5904 5903 5902 5901 5900 5900 5899 5899 5898 5897 5897 5896 5895 5894 5893 5893 5892 5891 5891 5890 5890 5889 5889 5888 5887 5886 5885 5884 5883 5882 5881 5880 5879 5878 5877 5876 5875 5874 5873 5872
5907 5907 5906 5905 5904 5903 5902 5901 5901 5900 5899 5899 5898 5897 5897 5896 5895 5894 5893 5892 5892 5891 5890 5889 5889 5888 5887 5886 5885 5884 5883 5882 5881 5880 5879 5877 5876 5875 5874 5873 5872 5871 5870
5908 5907 5906 5905 5905 5904 5903 5902 5902 5901 5900 5900 5899 5898 5897 5896 5895 5894 5894 5893 5892 5891 5890 5889 5888 5887 5886 5885 5884 5883 5882 5881 5879 5878 5877 5875 5874 5873 5872 5871 5869 5868 5867
5909 5907 5907 5906 5905 5904 5903 5903 5902 5902 5901 5900 5899 5898 5897 5896 5896 5895 5894 5893 5892 5891 5890 5889 5887 5886 5885 5883 5882 5881 5880 5879 5878 5876 5875 5873 5872 5871 5870 5868 5867 5865 5864
5909 5908 5907 5906 5905 5904 5904 5903 5903 5902 5901 5900 5899 5898 5897 5896 5895 5895 5894 5893 5891 5890 5889 5888 5886 5885 5883 5882 5880 5879 5878 5876 5875 5874 5873 5871 5869 5868 5866 5865 5864 5862 5860
5909 5908 5907 5906 5906 5905 5904 5903 5903 5902 5901 5900 5899 5898 5897 5896 5895 5894 5893 5892 5891 5889 5888 5887 5885 5884 5882 5880 5879 5877 5875 5874 5873 5871 5870 5868 5867 5865 5863 5861 5860 5858 5857
5910 5909 5908 5907 5905 5905 5904 5903 5903 5902 5901 5900 5899 5898 5897 5896 5894 5893 5892 5891 5890 5889 5887 5886 5884 5882 5880 5878 5876 5875 5873 5871 5870 5868 5867 5865 5863 5862 5859 5857 5856 5854 5852